Sierra Vista, AZ

12:01 PM MST on June 22, 2017 (GMT -0700)
Sierra Vista Municipal-Libby Army Air Field

Weather History for KFHU - November, 2010

Change the Weather History Date:

Friday, November 12, 2010

  Actual Average Record
Temperature  
Mean Temperature 48 °F -  
Max Temperature 60 °F 66 °F 81 °F (1989)
Min Temperature 35 °F 45 °F 27 °F (1982)
Degree Days  
Heating Degree Days 18    
Moisture  
Dew Point 16 °F    
Average Humidity 31    
Maximum Humidity 52    
Minimum Humidity 14    
Precipitation  
Precipitation 0.00 in - - ()
Sea Level Pressure  
Sea Level Pressure 30.22 in    
Wind  
Wind Speed 4 mph (SW)    
Max Wind Speed 8 mph    
Max Gust Speed -    
Visibility 10 miles    
Events      
Averages and records for this station are not official NWS values.
T = Trace of Precipitation, MM = Missing Value Source: NWS Daily Summary

Daily Weather History Graph

Daily Weather History Graph

Search for Another Location

Airport or City:

Trip Planner

Search our weather history database for the weather conditions in past years. The results will help you decide how hot, cold, wet, or windy it might be!

Date:

Astronomy

Nov. 12, 2010 Rise Set
Actual Time 6:46 AM MST 5:23 PM MST
Civil Twilight 6:21 AM MST 5:49 PM MST
Nautical Twilight 5:51 AM MST 6:18 PM MST
Astronomical Twilight 5:23 AM MST 6:47 PM MST
Moon 12:20 PM MST (11/12) 11:30 PM MST (11/12)
Length of Visible Light 11h 28m
Length of Day
10h 37m
Waxing Crescent, 41% of the Moon is Illuminated
Nov 12
Waxing Crescent
Nov 13
First Quarter
Nov 21
Full
Nov 28
Last Quarter
Dec 5
New

Hourly Weather History & Observations

Time (MST) Temp. Windchill Dew Point Humidity Pressure Visibility Wind Dir Wind Speed Gust Speed Precip Events Conditions
12:56 AM 41.0 °F 38.0 °F 21.0 °F 45% 30.16 in 10.0 mi WSW 4.6 mph - N/A   Clear
1:56 AM 41.0 °F 39.0 °F 19.9 °F 43% 30.17 in 10.0 mi West 3.5 mph - N/A   Clear
2:56 AM 43.0 °F - 21.0 °F 42% 30.18 in 10.0 mi Calm Calm - N/A   Clear
3:56 AM 39.9 °F - 19.9 °F 45% 30.21 in 10.0 mi Calm Calm - N/A   Clear
4:56 AM 37.0 °F 31.0 °F 19.9 °F 50% 30.23 in 10.0 mi SE 8.1 mph - N/A   Clear
5:55 AM 39.2 °F - 21.2 °F 49% 30.24 in 10.0 mi Calm Calm - N/A   Clear
6:55 AM 35.6 °F - 19.4 °F 52% 30.27 in 50.0 mi SSW 2.3 mph - N/A   Clear
7:55 AM 42.8 °F - 21.2 °F 42% 30.26 in 50.0 mi SSW 1.2 mph - N/A   Clear
8:55 AM 46.4 °F - 21.2 °F 37% 30.28 in 50.0 mi Variable 2.3 mph - N/A   Clear
9:55 AM 50.0 °F - 19.4 °F 30% 30.27 in 50.0 mi Variable 4.6 mph - N/A   Clear
10:55 AM 53.6 °F - 21.2 °F 28% 30.27 in 50.0 mi Variable 5.8 mph - N/A   Clear
11:55 AM 55.4 °F - 17.6 °F 23% 30.25 in 50.0 mi Variable 6.9 mph - N/A   Clear
12:55 PM 57.2 °F - 14.0 °F 18% 30.22 in 50.0 mi East 8.1 mph - N/A   Clear
1:55 PM 59.0 °F - 10.4 °F 15% 30.21 in 50.0 mi East 8.1 mph - N/A   Clear
2:55 PM 60.8 °F - 10.4 °F 14% 30.18 in 50.0 mi Variable 4.6 mph - N/A   Clear
3:55 PM 60.8 °F - 14.0 °F 16% 30.17 in 50.0 mi Variable 4.6 mph - N/A   Clear
4:55 PM 57.2 °F - 14.0 °F 18% 30.18 in 50.0 mi North 4.6 mph - N/A   Clear
5:55 PM 53.6 °F - 15.8 °F 22% 30.20 in 50.0 mi Variable 2.3 mph - N/A   Clear
6:55 PM 48.2 °F - 14.0 °F 25% 30.25 in 10.0 mi Calm Calm - N/A   Clear
7:55 PM 44.6 °F 41.4 °F 10.4 °F 25% 30.23 in 10.0 mi WSW 5.8 mph - N/A   Clear
8:55 PM 44.6 °F 42.2 °F 10.4 °F 25% 30.22 in 10.0 mi SW 4.6 mph - N/A   Clear
9:55 PM 44.6 °F 42.2 °F 10.4 °F 25% 30.22 in 10.0 mi SW 4.6 mph - N/A   Clear
10:55 PM 41.0 °F 38.0 °F 10.4 °F 29% 30.22 in 10.0 mi SW 4.6 mph - N/A   Clear
11:56 PM 39.9 °F 37.8 °F 12.0 °F 32% 30.19 in 10.0 mi SW 3.5 mph - N/A   Clear